Weather Roundup
Issued by NWS

Home | Current Version | Previous Version | Graphics & Text | Print | Product List | Glossary Off
Versions: 1 2 3 4 5 6 7 8 9 10 11 12 13 14 15 16 17 18 19 20 21 22 23 24 25 26 27 28 29 30 31 32 33 34 35 36 37 38 39 40 41 42 43 44 45 46 47 48 49 50

000
NZUS93 KARX 290659
HRRWXR

CURRENT HOURLY OBSERVATIONS ACROSS
MUCH OF THE UPPER MISSISSIPPI VALLEY
NATIONAL WEATHER SERVICE LA CROSSE WI
200 AM CDT FRI AUG 29 2014


...SOUTHEAST MINNESOTA...


CITY           SKY/WX    TMP DP  RH WIND       PRES   REMARKS
ROCHESTER      LGT RAIN  67  65  93 S13       29.91F VSB 1
ROCHESTER/MAYO CLOUDY    66  65  98 SE9       29.90F
WINONA         CLOUDY    64  63  94 SE7       29.91F FOG
AUSTIN         TSTM      68  66  94 S9G16     29.89F
ALBERT LEA     CLOUDY    70  68  94 S12G18    29.87F
DODGE CENTER   TSTM      68  66  94 S9        29.89F
PRESTON        CLOUDY    66  66 100 CALM      29.92F FOG
OWATONNA       TSTM      70  66  88 SE6       29.87F
FARIBAULT      CLOUDY    70  64  83 SE6       29.86F HAZE
$$

...ELSEWHERE IN MINNESOTA...


CITY           SKY/WX    TMP DP  RH WIND       PRES   REMARKS
MINNEAPOLIS    CLOUDY    66  65  96 SE13      29.85F
INTNL FALLS    CLOUDY    62  59  90 CALM      29.87F
DULUTH         CLOUDY    60  56  86 E6        29.91F
RED WING       CLOUDY    66  64  94 SE10G16   29.87F
REDWOOD FALLS  FOG       66  66 100 SE7       29.82S VSB 1/2
MANKATO        CLOUDY    73  64  73 S6        29.84F THUNDER
WORTHINGTON    CLOUDY    72  72 100 S9        29.85S
FAIRMONT       MOCLDY    66  66 100 S12       29.84F
$$

...SOUTHWEST WISCONSIN...


CITY           SKY/WX    TMP DP  RH WIND       PRES   REMARKS
LA CROSSE      CLOUDY    66  61  84 E6        29.91F
PRAIRIE DU CHI CLOUDY    67  62  84 E7        29.92F
BOSCOBEL       CLOUDY    68  61  78 CALM      29.94F
LONE ROCK      NOT AVBL
PLATTEVILLE    MOCLDY    64  63  96 CALM      29.97F
FORT MC COY    CLOUDY    61  59  93 CALM      29.95F
VIROQUA        CLOUDY    62  62 100 SE8       29.94F
WIS DELLS      MOCLDY    64  58  82 SE6       29.96F
$$

...ELSEWHERE IN WISCONSIN...


CITY           SKY/WX    TMP DP  RH WIND       PRES   REMARKS
MILWAUKEE      MOCLDY    69  63  81 SE9       30.00F
MADISON        CLOUDY    65  61  87 SE6       29.97F
GREEN BAY      LGT RAIN  62  59  90 E7        30.02F
EAU CLAIRE     NOT AVBL
BLACK RVR FLS  CLOUDY    59  59 100 E7        29.95F
MEDFORD        DRIZZLE   57  56  97 SE12G17   30.00F
WAUSAU         LGT RAIN  57  55  93 SE8       30.01F FOG
WIS RAPIDS     LGT RAIN  58  56  93 E6        30.00F
MARSHFIELD     CLOUDY    57  54  89 E7        29.98F
RICE LAKE      CLOUDY    64  60  87 SE10G17   29.94F
$$

...NORTHEAST IOWA...


CITY           SKY/WX    TMP DP  RH WIND       PRES   REMARKS
WATERLOO       RAIN      69  67  93 S8        29.93F FOG
DUBUQUE        PTCLDY    66  65  96 S8        29.96F
DECORAH        CLOUDY    68  66  94 S7        29.92F
MASON CITY     LGT RAIN  69  69 100 S13       29.90F
CHARLES CITY   LGT RAIN  70  68  94 S13       29.93F
OELWEIN        CLOUDY    68  68 100 S9G15     29.93F FOG
$$

...ELSEWHERE IN IOWA...


CITY           SKY/WX    TMP DP  RH WIND       PRES   REMARKS
DES MOINES     LGT RAIN  69  66  90 NE8       29.88F
IOWA CITY      CLEAR     67  67 100 SE5       29.94F
FORT DODGE     CLOUDY    68  66  94 S8        29.89S
MARSHALLTOWN   HVY RAIN  68  67  96 SE5       29.93F FOG
CEDAR RAPIDS   CLEAR     68  68 100 SE8       29.92F FOG
$$

...NORTHERN ILLINOIS...


CITY           SKY/WX    TMP DP  RH WIND       PRES   REMARKS
CHICAGO-OHARE  CLOUDY    71  64  78 S7        29.98F
DUPAGE         CLOUDY    69  66  90 S3        29.98F
CHICAGO-MIDWAY CLOUDY    73  66  78 S8        29.98F
MOLINE         MOCLDY    70  68  93 CALM      29.94F
ROCKFORD       CLOUDY    67  65  93 SE5       29.98F FOG
STERLING       PTCLDY    66  64  94 CALM      29.97F
PEORIA         CLOUDY    72  68  87 SE7       29.97F
$$

NOTE: "FAIR" INDICATES FEW OR NO CLOUDS BELOW 12,000 FEET WITH NO
SIGNIFICANT WEATHER AND/OR OBSTRUCTIONS TO VISIBILITY. WIND
SPEEDS ARE IN MILES-PER-HOUR.



USA.gov is the U.S. government's official web portal to all federal, state and local government web resources and services.